This is the latest recevied weather packets stored in our database for station/object W1GK. If no packets are shown the sender has not sent any weather packets the latest 10 day(s).
| Time | Temp. | Humidity | Pressure | Rain* | Wind** | Luminosity | Snow |
|---|---|---|---|---|---|---|---|
| 1787965796 | 39.44° C | 17% | 1011.6 hPa | 0 mm | - | 120 W/m² | - |
| 1787965199 | 40° C | 17% | 1011.5 hPa | 0 mm | - | 144 W/m² | - |
| 1787964595 | 40° C | 17% | 1011.4 hPa | 0 mm | - | 292 W/m² | - |
| 1787963995 | 40.56° C | 17% | 1011.4 hPa | 0 mm | - | 160 W/m² | - |
| 1787963398 | 41.11° C | 15% | 1011.3 hPa | 0 mm | - | 316 W/m² | - |
| 1787962796 | 41.11° C | 16% | 1011.4 hPa | 0 mm | - | 406 W/m² | - |
| 1787962196 | 41.67° C | 15% | 1011.3 hPa | 0 mm | - | 422 W/m² | - |
| 1787961595 | 41.67° C | 15% | 1011.3 hPa | 0 mm | - | 392 W/m² | - |
| 1787960996 | 42.22° C | 15% | 1011.2 hPa | 0 mm | - | 469 W/m² | - |
| 1787960395 | 41.67° C | 16% | 1011.4 hPa | 0 mm | - | 522 W/m² | - |
| 1787959796 | 41.67° C | 16% | 1011.6 hPa | 0 mm | - | 571 W/m² | - |
| 1787959195 | 42.22° C | 16% | 1011.6 hPa | 0 mm | - | 599 W/m² | - |
| 1787958597 | 42.22° C | 16% | 1011.7 hPa | 0 mm | - | 612 W/m² | - |
| 1787957998 | 41.67° C | 17% | 1011.8 hPa | 0 mm | - | 661 W/m² | - |
| 1787957396 | 41.11° C | 17% | 1012 hPa | 0 mm | - | 642 W/m² | - |
| 1787956796 | 40.56° C | 18% | 1012.1 hPa | 0 mm | - | 279 W/m² | - |
| 1787956195 | 40° C | 18% | 1012.2 hPa | 0 mm | - | 221 W/m² | - |
| 1787955597 | 40.56° C | 18% | 1012.3 hPa | 0 mm | - | 192 W/m² | - |
| 1787954995 | 41.11° C | 17% | 1012.4 hPa | 0 mm | - | 186 W/m² | - |
| 1787954396 | 41.67° C | 16% | 1012.5 hPa | 0 mm | - | 223 W/m² | - |
| 1787953796 | 41.67° C | 16% | 1012.7 hPa | 0 mm | - | 492 W/m² | - |
| 1787953195 | 42.22° C | 16% | 1013 hPa | 0 mm | - | 547 W/m² | - |
| 1787952596 | 42.22° C | 15% | 1013 hPa | 0 mm | - | 438 W/m² | - |
| 1787951996 | 42.22° C | 16% | 1013.2 hPa | 0 mm | - | 230 W/m² | - |
| 1787951395 | 42.22° C | 16% | 1013.4 hPa | 0 mm | - | 169 W/m² | - |
* Rain latest hour (hover to see other rain measurements)
** Current wind speed in m/s (hover to see current wind gust speed)